• MPC Preparation (Info)

  • MPEC 2016-O221: 2014 KA102

    The following Minor Planet Electronic Circular may be linked-to from your own Web pages, but must not otherwise be redistributed electronically.

    A form allowing access to any MPEC is at the bottom of this page.


    Read MPEC 2016-O220 Read MPEC 2016-O222


    M.P.E.C. 2016-O221                               Issued 2016 July 17, 17:41 UT
    
         The Minor Planet Electronic Circulars contain information on unusual
             minor planets and routine data on comets.  They are published
        on behalf of Division F of the International Astronomical Union by the
              Minor Planet Center, Smithsonian Astrophysical Observatory,
                              Cambridge, MA 02138, U.S.A.
    
                 Prepared using the Tamkin Foundation Computer Network
    
                                  MPC@CFA.HARVARD.EDU
                URL https://www.minorplanetcenter.net/    ISSN 1523-6714
    
                                      2014 KA102
    
    Observations:
         K14KA2A  C2012 03 29.46138 13 51 57.541+06 15 35.16         22.1 wLEO221F51
         K14KA2A  C2012 03 29.47573 13 51 57.472+06 15 35.66         22.0 wLEO221F51
         K14KA2A  C2012 03 29.49014 13 51 57.413+06 15 36.31         22.2 wLEO221F51
         K14KA2A  C2012 03 29.50467 13 51 57.355+06 15 36.82         22.1 wLEO221F51
         K14KA2A* C2014 05 25.38097 14 03 00.408+06 39 57.26         22.1 wLEO221F51
         K14KA2A  C2014 05 25.38171 14 03 00.410+06 39 57.47         22.1 wLEO221F51
         K14KA2A  C2014 05 25.39398 14 03 00.359+06 39 57.60         22.1 wLEO221F51
         K14KA2A  C2014 05 25.39475 14 03 00.353+06 39 57.56         22.0 wLEO221F51
         K14KA2A  C2014 05 25.40701 14 03 00.316+06 39 57.95         22.3 wLEO221F51
         K14KA2A  C2014 05 25.40777 14 03 00.297+06 39 57.78         22.1 wLEO221F51
         K14KA2A  C2014 05 25.42010 14 03 00.260+06 39 57.86         22.2 wLEO221F51
         K14KA2A  C2014 05 25.42088 14 03 00.252+06 39 57.82         22.1 wLEO221F51
         K14KA2A  C2014 07 02.28079 14 01 27.479+06 37 58.75         22.3 wLEO221F51
         K14KA2A  C2014 07 02.29366 14 01 27.461+06 37 58.52         22.5 wLEO221F51
         K14KA2A  C2014 07 02.30647 14 01 27.437+06 37 58.27         22.2 wLEO221F51
         K14KA2A  C2015 03 22.49917 14 14 57.256+06 08 08.69         22.2 wLEO221F51
         K14KA2A  C2015 03 22.51282 14 14 57.200+06 08 08.89         22.1 wLEO221F51
         K14KA2A  C2015 03 22.52651 14 14 57.158+06 08 09.57         21.9 wLEO221F51
         K14KA2A  C2015 03 22.54028 14 14 57.115+06 08 10.12         22.1 wLEO221F51
         K14KA2A  C2015 04 23.49498 14 12 43.223+06 27 41.32         22.4 wLEO221F51
         K14KA2A  C2015 04 23.50923 14 12 43.157+06 27 41.87         22.3 wLEO221F51
         K14KA2A  C2015 04 23.52343 14 12 43.093+06 27 42.27         22.2 wLEO221F51
         K14KA2A  C2015 04 23.53767 14 12 43.020+06 27 42.74         22.2 wLEO221F51
         K14KA2A  C2015 05 18.42579 14 10 52.747+06 37 16.37         22.1 wLEO221F51
         K14KA2A  C2015 05 18.43814 14 10 52.705+06 37 16.62         22.1 wLEO221F51
         K14KA2A  C2015 05 18.45043 14 10 52.654+06 37 16.75         22.0 wLEO221F51
         K14KA2A  C2015 05 18.46272 14 10 52.608+06 37 17.07         22.3 wLEO221F51
    
    Observer details:
    F51 Pan-STARRS 1, Haleakala.  Observers B. Gibson, T. Goggia, N. Primak,
        A. Schultz, M. Willman.  Measurers K. Chambers, S. Chastel, Y.-T. Chen,
        L. Denneau, H. Flewelling, M. Holman, M. Huber, R. Jedicke, M. Lackner,
        E. Lilly, H.-W. Lin, E. Magnier, M. Micheli, M. Payne, P. Veres,
        R. Wainscoat, C. Waters, R. Weryk.  1.8-m Ritchey-Chretien + CCD.
    
    Orbital elements:
    2014 KA102
    Epoch 2016 July 31.0 TT = JDT 2457600.5                 MPC
    M   6.43939              (2000.0)            P               Q
    n   0.00087939     Peri.    6.36370     -0.99280174     -0.07535599
    a 107.8983741      Node   168.05093     +0.08009752     -0.99561670
    e   0.6633736      Incl.   26.71995     +0.08904549     +0.05539723
    P  1120            H    6.0           G   0.15           U   2
    Residuals in seconds of arc
    120329 F51  0.0   0.1+    140525 F51  0.1-  0.0     150322 F51  0.1+  0.0
    120329 F51  0.1-  0.0     140525 F51  0.0   0.0     150423 F51  0.1+  0.1-
    120329 F51  0.0   0.1+    140525 F51  0.1-  0.1-    150423 F51  0.1+  0.0
    120329 F51  0.0   0.0     140702 F51  0.1+  0.0     150423 F51  0.1+  0.0
    140525 F51  0.0   0.2-    140702 F51  0.0   0.0     150423 F51  0.0   0.1+
    140525 F51  0.1+  0.0     140702 F51  0.1-  0.1-    150518 F51  0.2-  0.0
    140525 F51  0.0   0.0     150322 F51  0.0   0.3+    150518 F51  0.0   0.0
    140525 F51  0.0   0.1-    150322 F51  0.1-  0.1-    150518 F51  0.0   0.0
    140525 F51  0.1+  0.2+    150322 F51  0.0   0.0     150518 F51  0.0   0.1+
    
    Ephemeris:
    2014 KA102               a,e,i = 107.90, 0.66, 27                q = 36.321
    Date    TT    R. A. (2000) Decl.     Delta      r     Elong.  Phase     V
    2016 06 17    14 16 26.1 +06 38 11  39.4396 39.9784   121.4     1.2    22.2
    ...
    2016 07 02    14 15 57.7 +06 35 29  39.6668 39.9925   108.0     1.4    22.2
    ...
    2016 07 10    14 15 50.3 +06 33 05  39.7972 40.0000   100.8     1.4    22.2
    ...
    2016 07 16    14 15 48.6 +06 30 52  39.8972 40.0056    95.4     1.4    22.2
    2016 07 17    14 15 48.6 +06 30 28  39.9140 40.0066    94.5     1.5    22.2
    2016 07 18    14 15 48.7 +06 30 03  39.9309 40.0075    93.6     1.5    22.2
    ...
    2016 07 24    14 15 51.3 +06 27 25  40.0320 40.0131    88.2     1.5    22.2
    ...
    2016 08 01    14 15 59.9 +06 23 27  40.1663 40.0206    81.0     1.4    22.2
    ...
    2016 08 16    14 16 32.0 +06 14 55  40.4088 40.0347    67.6     1.3    22.2
    
    A. U. Tomatic                (C) Copyright 2016 MPC           M.P.E.C. 2016-O221
    

    Read MPEC 2016-O220 Read MPEC 2016-O222


    MPEC number:

    Enter an MPEC number in one of the following forms:

    • 1997-B01 (the full form)
    • J97B01 (the packed version of the full form)
    • B01 (the abbreviated form)